Moab, UT

3:10 PM MDT on October 20, 2019 (GMT -0600)
Canyonlands

Weather History for KCNY - August, 2019

Change the Weather History Date:

Monday, August 19, 2019

  Actual Average Record
Temperature  
Mean Temperature 77 °F 76 °F  
Max Temperature 99 °F 92 °F 107 °F (1986)
Min Temperature 55 °F 61 °F 45 °F (1978)
Degree Days  
Heating Degree Days 0 0  
Month to date heating degree days 0 0  
Since 1 June heating degree days 23 17  
Since 1 July heating degree days 0 0  
Cooling Degree Days 12 11  
Month to date cooling degree days 303 257  
Year to date cooling degree days 1076 1050  
Since 1 June cooling degree days 1061 986  
Growing Degree Days 29 (Base 50)    
Moisture  
Dew Point 21 °F    
Average Humidity 13    
Maximum Humidity 19    
Minimum Humidity 7    
Precipitation  
Precipitation 0.00 in 0.03 in 0.50 in (1959)
Month to date precipitation 0.02 0.51  
Year to date precipitation 6.17 5.05  
Sea Level Pressure  
Sea Level Pressure 29.84 in    
Wind  
Wind Speed 5 mph (SW)    
Max Wind Speed 18 mph    
Max Gust Speed 24 mph    
Visibility 10 miles    
Events      
T = Trace of Precipitation, MM = Missing Value Source: NWS Daily Summary

Daily Weather History Graph

Daily Weather History Graph

Search for Another Location

Airport or City:

Astronomy

Aug. 19, 2019 Rise Set
Actual Time 6:36 AM MDT 8:08 PM MDT
Civil Twilight 6:08 AM MDT 8:36 PM MDT
Nautical Twilight 5:34 AM MDT 9:10 PM MDT
Astronomical Twilight 4:58 AM MDT 9:45 PM MDT
Moon 10:33 PM MDT (8/19) 10:18 AM MDT (8/19)
Length of Visible Light 14h 28m
Length of Day
13h 31m
Waning Gibbous, 85% of the Moon is Illuminated
Aug 19
Waning Gibbous
Aug 23
Last Quarter
Aug 30
New
Sep 5
First Quarter
Sep 13
Full

Hourly Weather History & Observations

Time (MDT) Temp. Dew Point Humidity Pressure Visibility Wind Dir Wind Speed Gust Speed Precip Events Conditions
12:53 AM 73.0 °F 19.9 °F 14% 29.78 in 10.0 mi Calm Calm - N/A   Clear
1:53 AM 70.0 °F 17.1 °F 13% 29.78 in 10.0 mi Calm Calm - N/A   Clear
2:53 AM 64.9 °F 16.0 °F 15% 29.79 in 10.0 mi Calm Calm - N/A   Clear
3:53 AM 64.0 °F 16.0 °F 16% 29.81 in 10.0 mi Calm Calm - N/A   Clear
4:53 AM 68.0 °F 19.9 °F 16% 29.82 in 10.0 mi Calm Calm - N/A   Clear
5:53 AM 61.0 °F 16.0 °F 17% 29.85 in 10.0 mi Calm Calm - N/A   Clear
6:53 AM 63.0 °F 19.0 °F 18% 29.88 in 10.0 mi SW 3.5 mph - N/A   Clear
7:53 AM 66.9 °F 18.0 °F 15% 29.88 in 10.0 mi Calm Calm - N/A   Clear
8:53 AM 77.0 °F 23.0 °F 13% 29.91 in 10.0 mi East 6.9 mph - N/A   Clear
9:53 AM 82.9 °F 23.0 °F 11% 29.91 in 10.0 mi ESE 4.6 mph - N/A   Clear
10:53 AM 88.0 °F 21.9 °F 9% 29.91 in 10.0 mi Calm Calm - N/A   Clear
11:53 AM 90.0 °F 19.9 °F 8% 29.90 in 10.0 mi Variable 4.6 mph - N/A   Clear
12:53 PM 91.9 °F 21.9 °F 8% 29.88 in 10.0 mi Variable 3.5 mph - N/A   Clear
1:53 PM 95.0 °F 23.0 °F 8% 29.86 in 10.0 mi Variable 6.9 mph - N/A   Clear
2:53 PM 97.0 °F 24.1 °F 7% 29.85 in 10.0 mi West 8.1 mph - N/A   Clear
3:53 PM 97.0 °F 25.0 °F 8% 29.82 in 10.0 mi SW 15.0 mph 20.7 mph N/A   Clear
4:53 PM 96.1 °F 24.1 °F 8% 29.81 in 10.0 mi SSW 12.7 mph 21.9 mph N/A   Clear
5:53 PM 96.1 °F 21.0 °F 7% 29.81 in 10.0 mi SW 13.8 mph - N/A   Clear
6:53 PM 93.0 °F 21.0 °F 7% 29.81 in 10.0 mi SW 8.1 mph - N/A   Clear
7:53 PM 90.0 °F 23.0 °F 9% 29.81 in 10.0 mi WSW 10.4 mph - N/A   Clear
8:53 PM 84.0 °F 23.0 °F 11% 29.80 in 10.0 mi West 9.2 mph - N/A   Clear
9:53 PM 79.0 °F 21.9 °F 12% 29.82 in 10.0 mi WSW 4.6 mph - N/A   Clear
10:53 PM 77.0 °F 21.9 °F 13% 29.83 in 10.0 mi Calm Calm - N/A   Clear
11:53 PM 71.1 °F 19.0 °F 14% 29.84 in 10.0 mi Calm Calm - N/A   Clear